800  
ASUS42 KRAH 210710  
RWRRAH  
NORTH CAROLINA WEATHER ROUNDUP  
NATIONAL WEATHER SERVICE RALEIGH NC  
200 AM EST TUE FEB 21 2017  
 
NOTE: "FAIR" INDICATES FEW OR NO CLOUDS BELOW 12,000 FEET WITH NO  
SIGNIFICANT WEATHER AND/OR S TO VISIBILITY
.  
 
NCZ001-053-055-056-065-067-210800-  
WESTERN NORTH CAROLINA  
 
CITY SKY/WX TMP DP RH WIND PRES REMARKS
 
ASHEVILLE PTCLDY 43 35 73 CALM 30.20S  
JEFFERSON CLOUDY 47 34 60 CALM 30.22S  
MORGANTON CLOUDY 44 38 78 N3 30.24S  
HICKORY CLOUDY 48 39 71 CALM 30.20R  
RUTHERFORDTON PTCLDY 49 36 60 CALM 30.19F  
MOUNT AIRY PTCLDY 51 40 67 CALM 30.23R  
BOONE CLOUDY 35 30 82 CALM 30.23S  

 
 
NCZ021-022-025-041-071-084-088-210800-  
CENTRAL NORTH CAROLINA  
 
CITY SKY/WX TMP DP RH WIND PRES REMARKS
 
CHARLOTTE CLOUDY 57 41 55 E5 30.20R  
GREENSBORO MOCLDY 55 36 48 CALM 30.20F  
WINSTON-SALEM PTCLDY 54 36 50 CALM 30.21F  
RALEIGH-DURHAM MOCLDY 54 40 59 SE13 30.25R  
FORT BRAGG MOCLDY 53 43 69 E3 30.23S  
FAYETTEVILLE MOCLDY 50 43 77 E6 30.23R  
BURLINGTON PTCLDY 49 39 68 CALM 30.21S  
LAURINBURG MOCLDY 48 44 86 E3 30.22S  

 
 
NCZ011-015-027-028-043-044-047-080-103-210800-  
NORTHEASTERN NORTH CAROLINA  
 
CITY SKY/WX TMP DP RH WIND PRES REMARKS
 
ROCKY MT-WILSO CLOUDY 48 38 68 E3 30.28R  
GREENVILLE CLOUDY 43 37 81 CALM 30.29R  
WASHINGTON PTCLDY 43 38 82 CALM 30.28R  
ELIZABETH CITY PTCLDY 41 37 86 CALM 30.28S  
MANTEO CLOUDY 47 42 85 E7 30.27S  
CAPE HATTERAS CLOUDY 53 43 68 NE7 30.25R  

 
 
NCZ078-087-090-091-093-098-101-210800-  
SOUTHEASTERN NORTH CAROLINA  
 
CITY SKY/WX TMP DP RH WIND PRES REMARKS
 
LUMBERTON LGT RAIN 49 47 93 CALM 30.22R  
GOLDSBORO MOCLDY 47 43 87 E9 30.24S  
KINSTON MOCLDY 47 40 75 CALM 30.27S  
KENANSVILLE NOT AVBL  
NEW BERN PTCLDY 44 42 93 CALM 30.28R  
CHERRY POINT CLOUDY 50 43 77 N5 30.26R  
BEAUFORT PTCLDY 48 44 86 NE6 30.25R  
JACKSONVILLE PTCLDY 48 41 76 NE7 30.24S  
WILMINGTON CLOUDY 50 45 83 NE6 30.23S  

 
 
 
 
CLICK HERE TO GO TO PREVIOUS BULLETINS.

The Nexlab NC Page Main Text Page